Lexington, KY

5:38 PM EDT on May 22, 2017 (GMT -0400)
Blue Grass

Weather History for KLEX - May, 2013

Change the Weather History Date:

Friday, May 3, 2013

  Actual Average Record
Temperature  
Mean Temperature 68 °F 60 °F  
Max Temperature 76 °F 71 °F 88 °F (1959)
Min Temperature 59 °F 50 °F 32 °F (2005)
Degree Days  
Heating Degree Days 0 6  
Month to date heating degree days 0 18  
Since 1 July heating degree days 4587 4507  
Cooling Degree Days 3 1  
Month to date cooling degree days 10 3  
Year to date cooling degree days 39 25  
Growing Degree Days 17 (Base 50)    
Moisture  
Dew Point 52 °F    
Average Humidity 57    
Maximum Humidity 78    
Minimum Humidity 36    
Precipitation  
Precipitation 0.00 in 0.16 in 1.81 in (2011)
Month to date precipitation 0.00 0.47  
Year to date precipitation 16.20 14.54  
Snow  
Snow 0.00 in 0.00 in - ()
Month to date snowfall 0.0 0.0  
Since 1 July snowfall 12.5 13.0  
Snow Depth 0.00 in    
Sea Level Pressure  
Sea Level Pressure 30.02 in    
Wind  
Wind Speed 10 mph (SE)    
Max Wind Speed 18 mph    
Max Gust Speed 24 mph    
Visibility 10 miles    
Events      
T = Trace of Precipitation, MM = Missing Value Source: NWS Daily Summary

Daily Weather History Graph

Daily Weather History Graph

Search for Another Location

Airport or City:

Trip Planner

Search our weather history database for the weather conditions in past years. The results will help you decide how hot, cold, wet, or windy it might be!

Date:

Astronomy

May. 03, 2013 Rise Set
Actual Time 6:39 AM EDT 8:31 PM EDT
Civil Twilight 6:11 AM EDT 9:00 PM EDT
Nautical Twilight 5:36 AM EDT 9:34 PM EDT
Astronomical Twilight 4:59 AM EDT 10:12 PM EDT
Moon 2:57 AM EDT (5/3) 2:30 PM EDT (5/3)
Length of Visible Light 14h 48m
Length of Day
13h 51m
Last Quarter, 37% of the Moon is Illuminated
May 3
Last Quarter
May 9
New
May 18
First Quarter
May 25
Full
May 31
Last Quarter

Hourly Weather History & Observations

Time (EDT) Temp. Dew Point Humidity Pressure Visibility Wind Dir Wind Speed Gust Speed Precip Events Conditions
12:54 AM 64.0 °F 54.0 °F 70% 30.08 in 10.0 mi SE 5.8 mph - N/A   Mostly Cloudy
1:54 AM 64.9 °F 54.0 °F 68% 30.08 in 10.0 mi SSE 12.7 mph - N/A   Mostly Cloudy
2:54 AM 63.0 °F 54.0 °F 72% 30.06 in 10.0 mi SSE 5.8 mph - N/A   Mostly Cloudy
3:54 AM 62.1 °F 54.0 °F 75% 30.06 in 10.0 mi SE 8.1 mph - N/A   Mostly Cloudy
4:54 AM 61.0 °F 53.1 °F 75% 30.06 in 10.0 mi SE 8.1 mph - N/A   Clear
5:54 AM 60.1 °F 52.0 °F 75% 30.06 in 10.0 mi SE 8.1 mph - N/A   Clear
6:54 AM 60.1 °F 52.0 °F 75% 30.07 in 10.0 mi SE 8.1 mph - N/A   Clear
7:54 AM 61.0 °F 52.0 °F 72% 30.08 in 10.0 mi SE 9.2 mph - N/A   Clear
8:54 AM 63.0 °F 53.1 °F 70% 30.07 in 10.0 mi SE 8.1 mph - N/A   Clear
9:54 AM 66.0 °F 54.0 °F 65% 30.06 in 10.0 mi SE 9.2 mph - N/A   Clear
10:54 AM 69.1 °F 57.0 °F 65% 30.06 in 10.0 mi SSE 10.4 mph - N/A   Clear
11:54 AM 71.1 °F 57.0 °F 61% 30.05 in 10.0 mi ESE 6.9 mph - N/A   Scattered Clouds
12:54 PM 70.0 °F 55.9 °F 61% 30.03 in 10.0 mi ESE 8.1 mph - N/A   Scattered Clouds
1:54 PM 73.0 °F 55.9 °F 55% 30.00 in 10.0 mi ESE 11.5 mph - N/A   Scattered Clouds
2:54 PM 73.9 °F 55.9 °F 53% 29.98 in 10.0 mi ESE 15.0 mph - N/A   Partly Cloudy
3:54 PM 75.0 °F 55.9 °F 51% 29.96 in 10.0 mi ESE 15.0 mph 19.6 mph N/A   Partly Cloudy
4:54 PM 75.9 °F 55.9 °F 50% 29.95 in 10.0 mi ESE 10.4 mph - N/A   Partly Cloudy
5:54 PM 75.0 °F 53.1 °F 46% 29.94 in 10.0 mi SSE 12.7 mph 20.7 mph N/A   Partly Cloudy
6:54 PM 73.0 °F 52.0 °F 48% 29.94 in 10.0 mi SE 6.9 mph - N/A   Clear
7:54 PM 71.6 °F 51.8 °F 50% 29.95 in 10.0 mi ESE 13.8 mph - N/A   Clear
8:54 PM 70.0 °F 41.0 °F 35% 29.94 in 10.0 mi ESE 13.8 mph 20.7 mph N/A   Clear
9:54 PM 68.0 °F 41.0 °F 37% 29.95 in 10.0 mi ESE 9.2 mph - N/A   Clear
10:54 PM 66.9 °F 39.9 °F 37% 29.96 in 10.0 mi ESE 13.8 mph 20.7 mph N/A   Clear
11:54 PM 66.0 °F 39.9 °F 38% 29.96 in 10.0 mi ESE 15.0 mph 19.6 mph N/A   Clear